Time,TemperatureF,DewpointF,PressureIn,WindDirection,WindDirectionDegrees,WindSpeedMPH,WindSpeedGustMPH,Humidity,HourlyPrecipIn,Conditions,Clouds,dailyrainin,SolarRadiationWatts/m^2,SoftwareType,DateUTC
2013-04-17 00:02:00,28.0,18.0,-100.00,ENE,57,1.0,10.0,65,0.00,,,0.00,0.000000,,2013-04-17 07:02:00,
2013-04-17 00:12:00,28.0,18.0,-100.00,ENE,57,1.0,10.0,65,0.00,,,0.00,0.000000,,2013-04-17 07:12:00,
2013-04-17 00:22:00,28.0,18.0,-100.00,ENE,57,1.0,10.0,65,0.00,,,0.00,0.000000,,2013-04-17 07:22:00,
2013-04-17 00:32:00,28.0,18.0,-100.00,ENE,57,1.0,10.0,65,0.00,,,0.00,0.000000,,2013-04-17 07:32:00,
2013-04-17 01:02:00,28.0,18.0,-100.00,SSW,212,1.0,13.0,65,0.00,,,0.00,0.000000,,2013-04-17 08:02:00,
2013-04-17 01:12:00,28.0,18.0,-100.00,SSW,212,1.0,13.0,65,0.00,,,0.00,0.000000,,2013-04-17 08:12:00,
2013-04-17 01:22:00,28.0,18.0,-100.00,SSW,212,1.0,13.0,65,0.00,,,0.00,0.000000,,2013-04-17 08:22:00,
2013-04-17 01:32:00,28.0,18.0,-100.00,SSW,212,1.0,13.0,65,0.00,,,0.00,0.000000,,2013-04-17 08:32:00,
2013-04-17 02:02:00,27.0,21.0,-100.00,East,88,0.0,10.0,79,0.00,,,0.00,0.000000,,2013-04-17 09:02:00,
2013-04-17 02:12:00,27.0,21.0,-100.00,East,88,0.0,10.0,79,0.00,,,0.00,0.000000,,2013-04-17 09:12:00,
2013-04-17 02:22:00,27.0,21.0,-100.00,East,88,0.0,10.0,79,0.00,,,0.00,0.000000,,2013-04-17 09:22:00,
2013-04-17 02:32:00,27.0,21.0,-100.00,East,88,0.0,10.0,79,0.00,,,0.00,0.000000,,2013-04-17 09:32:00,
2013-04-17 03:02:00,26.0,24.0,-100.00,East,84,1.0,8.0,91,0.00,,,0.00,0.000000,,2013-04-17 10:02:00,
2013-04-17 03:12:00,26.0,24.0,-100.00,East,84,1.0,8.0,91,0.00,,,0.00,0.000000,,2013-04-17 10:12:00,
2013-04-17 03:23:00,26.0,24.0,-100.00,East,84,1.0,8.0,91,0.00,,,0.00,0.000000,,2013-04-17 10:23:00,
2013-04-17 03:32:00,26.0,24.0,-100.00,East,84,1.0,8.0,91,0.00,,,0.00,0.000000,,2013-04-17 10:32:00,
2013-04-17 04:02:00,25.0,20.0,-100.00,East,89,0.0,9.0,80,0.00,,,0.00,0.000000,,2013-04-17 11:02:00,
2013-04-17 04:11:00,25.0,20.0,-100.00,East,89,0.0,9.0,80,0.00,,,0.00,0.000000,,2013-04-17 11:11:00,
2013-04-17 04:22:00,25.0,20.0,-100.00,East,89,0.0,9.0,80,0.00,,,0.00,0.000000,,2013-04-17 11:22:00,
2013-04-17 04:32:00,25.0,20.0,-100.00,East,89,0.0,9.0,80,0.00,,,0.00,0.000000,,2013-04-17 11:32:00,
2013-04-17 05:02:00,26.0,22.0,-100.00,North,6,0.0,21.0,86,0.00,,,0.00,0.000000,,2013-04-17 12:02:00,
2013-04-17 05:12:00,26.0,22.0,-100.00,North,6,0.0,21.0,86,0.00,,,0.00,0.000000,,2013-04-17 12:12:00,
2013-04-17 05:22:00,26.0,22.0,-100.00,North,6,0.0,21.0,86,0.00,,,0.00,0.000000,,2013-04-17 12:22:00,
2013-04-17 05:32:00,26.0,22.0,-100.00,North,6,0.0,21.0,86,0.00,,,0.00,0.000000,,2013-04-17 12:32:00,
2013-04-17 06:02:00,26.0,19.0,-100.00,North,354,0.0,8.0,76,0.00,,,0.00,0.000000,,2013-04-17 13:02:00,
2013-04-17 06:12:00,26.0,19.0,-100.00,North,354,0.0,8.0,76,0.00,,,0.00,0.000000,,2013-04-17 13:12:00,
2013-04-17 06:22:00,26.0,19.0,-100.00,North,354,0.0,8.0,76,0.00,,,0.00,0.000000,,2013-04-17 13:22:00,
2013-04-17 06:32:00,26.0,19.0,-100.00,North,354,0.0,8.0,76,0.00,,,0.00,0.000000,,2013-04-17 13:32:00,
2013-04-17 07:02:00,21.0,15.0,-100.00,NNW,327,0.0,8.0,76,0.00,,,0.00,1.000000,,2013-04-17 14:02:00,
2013-04-17 07:12:00,21.0,15.0,-100.00,NNW,327,0.0,8.0,76,0.00,,,0.00,1.000000,,2013-04-17 14:12:00,
2013-04-17 07:22:00,21.0,15.0,-100.00,NNW,327,0.0,8.0,76,0.00,,,0.00,1.000000,,2013-04-17 14:22:00,
2013-04-17 07:32:00,21.0,15.0,-100.00,NNW,327,0.0,8.0,76,0.00,,,0.00,1.000000,,2013-04-17 14:32:00,
2013-04-17 08:02:00,27.0,13.0,-100.00,SSE,163,1.0,10.0,56,0.00,,,0.00,13.000000,,2013-04-17 15:02:00,
2013-04-17 08:12:00,27.0,13.0,-100.00,SSE,163,1.0,10.0,56,0.00,,,0.00,13.000000,,2013-04-17 15:12:00,
2013-04-17 08:22:00,27.0,13.0,-100.00,SSE,163,1.0,10.0,56,0.00,,,0.00,13.000000,,2013-04-17 15:22:00,
2013-04-17 08:33:00,27.0,13.0,-100.00,SSE,163,1.0,10.0,56,0.00,,,0.00,13.000000,,2013-04-17 15:33:00,
2013-04-17 09:03:00,33.0,14.0,-100.00,North,355,1.0,12.0,46,0.00,,,0.00,204.000000,,2013-04-17 16:03:00,
2013-04-17 09:12:00,33.0,14.0,-100.00,North,355,1.0,12.0,46,0.00,,,0.00,204.000000,,2013-04-17 16:12:00,
2013-04-17 09:22:00,33.0,14.0,-100.00,North,355,1.0,12.0,46,0.00,,,0.00,204.000000,,2013-04-17 16:22:00,
2013-04-17 09:32:00,33.0,14.0,-100.00,North,355,1.0,12.0,46,0.00,,,0.00,204.000000,,2013-04-17 16:32:00,
2013-04-17 10:02:00,35.0,15.0,-100.00,ENE,66,2.0,12.0,43,0.00,,,0.00,643.000000,,2013-04-17 17:02:00,
2013-04-17 10:12:00,35.0,15.0,-100.00,ENE,66,2.0,12.0,43,0.00,,,0.00,643.000000,,2013-04-17 17:12:00,
2013-04-17 10:22:00,35.0,15.0,-100.00,ENE,66,2.0,12.0,43,0.00,,,0.00,643.000000,,2013-04-17 17:22:00,
2013-04-17 10:32:00,35.0,15.0,-100.00,ENE,66,2.0,12.0,43,0.00,,,0.00,643.000000,,2013-04-17 17:32:00,
2013-04-17 11:02:00,35.0,8.0,-100.00,NNE,16,4.0,15.0,32,0.00,,,0.00,904.000000,,2013-04-17 18:02:00,
2013-04-17 11:12:00,35.0,8.0,-100.00,NNE,16,4.0,15.0,32,0.00,,,0.00,904.000000,,2013-04-17 18:12:00,
2013-04-17 11:22:00,35.0,8.0,-100.00,NNE,16,4.0,15.0,32,0.00,,,0.00,904.000000,,2013-04-17 18:22:00,
2013-04-17 11:32:00,35.0,8.0,-100.00,NNE,16,4.0,15.0,32,0.00,,,0.00,904.000000,,2013-04-17 18:32:00,
2013-04-17 12:02:00,39.0,8.0,-100.00,ENE,74,3.0,17.0,27,0.00,,,0.00,1072.000000,,2013-04-17 19:02:00,
2013-04-17 12:12:00,39.0,8.0,-100.00,ENE,74,3.0,17.0,27,0.00,,,0.00,1072.000000,,2013-04-17 19:12:00,
2013-04-17 12:22:00,39.0,8.0,-100.00,ENE,74,3.0,17.0,27,0.00,,,0.00,1072.000000,,2013-04-17 19:22:00,
2013-04-17 12:32:00,39.0,8.0,-100.00,ENE,74,3.0,17.0,27,0.00,,,0.00,1072.000000,,2013-04-17 19:32:00,
2013-04-17 13:02:00,41.0,4.0,-100.00,NNW,337,1.0,13.0,21,0.00,,,0.00,1177.000000,,2013-04-17 20:02:00,
2013-04-17 13:12:00,41.0,4.0,-100.00,NNW,337,1.0,13.0,21,0.00,,,0.00,1177.000000,,2013-04-17 20:12:00,
2013-04-17 13:22:00,41.0,4.0,-100.00,NNW,337,1.0,13.0,21,0.00,,,0.00,1177.000000,,2013-04-17 20:22:00,
2013-04-17 13:32:00,41.0,4.0,-100.00,NNW,337,1.0,13.0,21,0.00,,,0.00,1177.000000,,2013-04-17 20:32:00,
2013-04-17 14:02:00,41.0,-6.0,-100.00,West,278,3.0,18.0,13,0.00,,,0.00,1201.000000,,2013-04-17 21:02:00,
2013-04-17 15:02:00,43.0,1.0,-100.00,SW,226,3.0,16.0,17,0.00,,,0.00,1146.000000,,2013-04-17 22:02:00,
2013-04-17 15:12:00,43.0,1.0,-100.00,SW,226,3.0,16.0,17,0.00,,,0.00,1146.000000,,2013-04-17 22:12:00,
2013-04-17 15:22:00,43.0,1.0,-100.00,SW,226,3.0,16.0,17,0.00,,,0.00,1146.000000,,2013-04-17 22:22:00,
2013-04-17 15:33:00,43.0,1.0,-100.00,SW,226,3.0,16.0,17,0.00,,,0.00,1146.000000,,2013-04-17 22:33:00,
2013-04-17 16:02:00,46.0,-2.0,-100.00,NE,41,4.0,20.0,13,0.00,,,0.00,1020.000000,,2013-04-17 23:02:00,
2013-04-17 16:12:00,46.0,-2.0,-100.00,NE,41,4.0,20.0,13,0.00,,,0.00,1020.000000,,2013-04-17 23:12:00,
2013-04-17 16:22:00,46.0,-2.0,-100.00,NE,41,4.0,20.0,13,0.00,,,0.00,1020.000000,,2013-04-17 23:22:00,
2013-04-17 16:32:00,46.0,-2.0,-100.00,NE,41,4.0,20.0,13,0.00,,,0.00,1020.000000,,2013-04-17 23:32:00,
2013-04-17 17:02:00,45.0,0.0,-100.00,SE,144,2.0,16.0,15,0.00,,,0.00,827.000000,,2013-04-18 00:02:00,
2013-04-17 17:12:00,45.0,0.0,-100.00,SE,144,2.0,16.0,15,0.00,,,0.00,827.000000,,2013-04-18 00:12:00,
2013-04-17 17:22:00,45.0,0.0,-100.00,SE,144,2.0,16.0,15,0.00,,,0.00,827.000000,,2013-04-18 00:22:00,
2013-04-17 17:32:00,45.0,0.0,-100.00,SE,144,2.0,16.0,15,0.00,,,0.00,827.000000,,2013-04-18 00:32:00,
2013-04-17 18:02:00,44.0,-2.0,-100.00,WSW,244,2.0,16.0,14,0.00,,,0.00,584.000000,,2013-04-18 01:02:00,
2013-04-17 18:12:00,44.0,-2.0,-100.00,WSW,244,2.0,16.0,14,0.00,,,0.00,584.000000,,2013-04-18 01:12:00,
2013-04-17 18:22:00,44.0,-2.0,-100.00,WSW,244,2.0,16.0,14,0.00,,,0.00,584.000000,,2013-04-18 01:22:00,
2013-04-17 18:32:00,44.0,-2.0,-100.00,WSW,244,2.0,16.0,14,0.00,,,0.00,584.000000,,2013-04-18 01:32:00,
2013-04-17 19:02:00,39.0,-1.0,-100.00,WSW,238,0.0,12.0,18,0.00,,,0.00,178.000000,,2013-04-18 02:02:00,
2013-04-17 19:12:00,39.0,-1.0,-100.00,WSW,238,0.0,12.0,18,0.00,,,0.00,178.000000,,2013-04-18 02:12:00,
2013-04-17 19:22:00,39.0,-1.0,-100.00,WSW,238,0.0,12.0,18,0.00,,,0.00,178.000000,,2013-04-18 02:22:00,
2013-04-17 19:32:00,39.0,-1.0,-100.00,WSW,238,0.0,12.0,18,0.00,,,0.00,178.000000,,2013-04-18 02:32:00,
2013-04-17 20:02:00,36.0,-1.0,-100.00,NNE,30,0.0,9.0,20,0.00,,,0.00,12.000000,,2013-04-18 03:02:00,
2013-04-17 20:12:00,36.0,-1.0,-100.00,NNE,30,0.0,9.0,20,0.00,,,0.00,12.000000,,2013-04-18 03:12:00,
2013-04-17 20:22:00,36.0,-1.0,-100.00,NNE,30,0.0,9.0,20,0.00,,,0.00,12.000000,,2013-04-18 03:22:00,
2013-04-17 20:33:00,36.0,-1.0,-100.00,NNE,30,0.0,9.0,20,0.00,,,0.00,12.000000,,2013-04-18 03:33:00,
2013-04-17 21:03:00,33.0,1.0,-100.00,South,179,1.0,7.0,25,0.00,,,0.00,0.000000,,2013-04-18 04:03:00,
2013-04-17 21:13:00,33.0,1.0,-100.00,South,179,1.0,7.0,25,0.00,,,0.00,0.000000,,2013-04-18 04:13:00,
2013-04-17 21:23:00,33.0,1.0,-100.00,South,179,1.0,7.0,25,0.00,,,0.00,0.000000,,2013-04-18 04:23:00,
2013-04-17 21:32:00,33.0,1.0,-100.00,South,179,1.0,7.0,25,0.00,,,0.00,0.000000,,2013-04-18 04:32:00,
2013-04-17 22:02:00,32.0,1.0,-100.00,ENE,68,0.0,8.0,26,0.00,,,0.00,0.000000,,2013-04-18 05:02:00,
2013-04-17 22:12:00,32.0,1.0,-100.00,ENE,68,0.0,8.0,26,0.00,,,0.00,0.000000,,2013-04-18 05:12:00,
2013-04-17 22:22:00,32.0,1.0,-100.00,ENE,68,0.0,8.0,26,0.00,,,0.00,0.000000,,2013-04-18 05:22:00,
2013-04-17 22:32:00,32.0,1.0,-100.00,ENE,68,0.0,8.0,26,0.00,,,0.00,0.000000,,2013-04-18 05:32:00,
2013-04-17 23:02:00,32.0,2.0,-100.00,NNW,341,0.0,6.0,27,0.00,,,0.00,0.000000,,2013-04-18 06:02:00,
2013-04-17 23:12:00,32.0,2.0,-100.00,NNW,341,0.0,6.0,27,0.00,,,0.00,0.000000,,2013-04-18 06:12:00,
2013-04-17 23:22:00,32.0,2.0,-100.00,NNW,341,0.0,6.0,27,0.00,,,0.00,0.000000,,2013-04-18 06:22:00,
2013-04-17 23:32:00,32.0,2.0,-100.00,NNW,341,0.0,6.0,27,0.00,,,0.00,0.000000,,2013-04-18 06:32:00,